FW3092 Weather Reports


Display with metric or nautical units.
time (UTC)temp
F
wind
direction
speed
MPH
gust
MPH
rain 1hr
in
rain 24hr
in
rain mn
in
humidity
%
barometer
mb
20260508011532 43 67 1.0 3.0 0.00 0.04 0.03 65 952.7
20260508010030 44 309 1.0 3.0 0.00 0.04 0.03 65 952.8
20260508004535 45 142 1.0 9.0 0.00 0.04 0.03 64 952.9
20260508003025 45 297 2.0 4.0 0.00 0.04 0.03 64 952.6
20260508001529 46 38 0.0 5.0 0.00 0.04 0.03 63 952.4
20260508000023 47 308 1.0 5.0 0.00 0.04 0.03 61 952.3
20260507234531 47 335 0.0 3.0 0.00 0.04 0.03 60 952.3
20260507233026 48 12 1.0 6.0 0.00 0.04 0.03 59 952.3
20260507231522 48 296 2.0 5.0 0.00 0.04 0.03 58 952.2
20260507230021 48 99 2.0 8.0 0.00 0.04 0.03 59 951.9
20260507224524 48 286 3.0 8.0 0.00 0.04 0.03 58 952.1
20260507223020 49 318 1.0 9.0 0.00 0.04 0.03 58 952.2
20260507221521 49 5 4.0 12.0 0.00 0.04 0.03 58 952.0
20260507220018 50 304 2.0 9.0 0.00 0.04 0.03 57 952.0
20260507214524 50 262 3.0 8.0 0.00 0.04 0.03 56 952.1
20260507213015 51 291 3.0 10.0 0.00 0.04 0.03 55 952.4
20260507211516 52 273 4.0 10.0 0.00 0.04 0.03 55 952.3
20260507210015 51 41 3.0 12.0 0.00 0.04 0.03 56 952.3
20260507204514 52 5 7.0 13.0 0.00 0.04 0.03 57 952.2
20260507203014 51 300 5.0 13.0 0.00 0.04 0.03 53 952.2
20260507201517 53 269 6.0 11.0 0.00 0.04 0.03 53 952.2
20260507200012 53 271 8.0 15.0 0.00 0.09 0.03 51 952.2
20260507194511 53 258 6.0 12.0 0.00 0.09 0.03 55 952.5
20260507193016 51 9 3.0 9.0 0.00 0.09 0.03 58 952.6
20260507191510 50 300 3.0 10.0 0.00 0.09 0.03 57 952.7
20260507190007 51 53 3.0 9.0 0.00 0.10 0.03 54 952.7
20260507184507 52 315 2.0 13.0 0.00 0.10 0.03 54 952.8
20260507183008 52 323 4.0 13.0 0.00 0.10 0.03 56 953.0
20260507181600 51 290 7.0 14.0 0.00 0.10 0.03 56 953.1
20260507180107 49 342 5.0 14.0 0.00 0.10 0.03 57 952.9
20260507174630 49 309 6.0 14.0 0.00 0.11 0.03 55 953.1
20260507173055 50 247 3.0 11.0 0.00 0.11 0.03 56 953.2
20260507171609 50 313 4.0 11.0 0.00 0.11 0.03 58 953.4
20260507170054 50 272 4.0 10.0 0.00 0.11 0.03 57 953.3
20260507164554 50 296 4.0 12.0 0.00 0.11 0.03 61 953.5
20260507163048 49 53 5.0 12.0 0.00 0.11 0.03 59 953.7
20260507161551 49 286 7.0 17.0 0.00 0.11 0.03 59 953.6
20260507160111 50 291 3.0 11.0 0.00 0.11 0.03 58 953.8
20260507154547 50 283 5.0 10.0 0.00 0.12 0.03 60 954.0
20260507153044 49 323 5.0 11.0 0.00 0.12 0.03 61 954.3
20260507151543 49 275 5.0 10.0 0.00 0.12 0.03 60 954.2
20260507150041 49 73 4.0 13.0 0.00 0.12 0.03 62 954.2
20260507144538 48 317 4.0 11.0 0.00 0.14 0.03 61 954.5
20260507143034 47 30 2.0 10.0 0.00 0.14 0.03 63 954.7
20260507141531 46 5 4.0 8.0 0.00 0.14 0.03 65 954.7
20260507140037 45 304 4.0 14.0 0.00 0.14 0.03 66 954.6
20260507134524 45 270 4.0 10.0 0.00 0.22 0.03 72 954.8
20260507133020 44 298 3.0 8.0 0.00 0.22 0.03 74 954.8
20260507131525 43 262 1.0 7.0 0.00 0.22 0.03 80 954.6
20260507130013 42 340 2.0 5.0 0.00 0.30 0.03 81 954.8
20260507124507 40 282 1.0 5.0 0.00 0.30 0.03 85 955.1
20260507123003 39 269 2.0 8.0 0.00 0.30 0.03 85 955.0
20260507121601 38 256 3.0 7.0 0.00 0.30 0.03 87 955.0
20260507120057 37 343 0.0 5.0 0.00 0.30 0.03 88 954.8
20260507114557 36 274 1.0 6.0 0.00 0.34 0.03 90 954.7
20260507113128 36 308 2.0 5.0 0.00 0.34 0.03 90 954.7
20260507111555 35 311 1.0 4.0 0.00 0.34 0.03 91 954.5
20260507110053 35 283 1.0 4.0 0.00 0.34 0.03 91 954.6
20260507104602 34 302 2.0 4.0 0.00 0.35 0.03 90 954.5
20260507103050 34 306 0.0 4.0 0.00 0.35 0.03 90 954.4
20260507101553 34 288 0.0 3.0 0.00 0.35 0.03 90 954.1
20260507100055 34 300 0.0 5.0 0.00 0.35 0.03 90 954.0
20260507094547 35 283 1.0 7.0 0.00 0.37 0.03 90 954.0
20260507093043 35 281 1.0 8.0 0.00 0.37 0.03 90 954.1
20260507091543 35 268 3.0 7.0 0.00 0.37 0.03 90 954.5
20260507090040 36 286 2.0 5.0 0.00 0.37 0.03 89 954.5
20260507084550 36 284 2.0 5.0 0.00 0.37 0.03 90 954.5
20260507083035 36 290 2.0 7.0 0.00 0.37 0.03 90 954.3
20260507081532 37 302 2.0 7.0 0.00 0.37 0.03 90 954.4
20260507080031 37 303 1.0 6.0 0.00 0.37 0.03 91 954.4
20260507074529 37 338 1.0 6.0 0.00 0.37 0.03 91 954.4
20260507073027 38 321 1.0 4.0 0.00 0.37 0.03 91 954.2
20260507071529 38 270 2.0 5.0 0.00 0.37 0.03 91 954.2
20260507070025 38 271 2.0 10.0 0.00 0.37 0.03 92 954.0
20260507064522 39 290 4.0 9.0 0.00 0.37 0.03 92 954.1
20260507063019 40 296 4.0 10.0 0.00 0.37 0.03 92 953.8
20260507061519 40 267 1.0 10.0 0.01 0.37 0.03 92 953.8
20260507060031 41 5 5.0 11.0 0.01 0.37 0.03 93 954.0
20260507054512 41 290 4.0 13.0 0.01 0.37 0.03 93 953.8
20260507053010 41 267 7.0 14.0 0.02 0.37 0.03 93 954.0
20260507051508 42 280 3.0 9.0 0.01 0.36 0.02 93 954.0
20260507050018 42 317 3.0 10.0 0.02 0.36 0.02 93 954.0
20260507044503 42 288 0.0 4.0 0.02 0.36 0.02 93 954.0
20260507043059 42 323 1.0 3.0 0.01 0.35 0.01 93 954.0
20260507041555 41 275 1.0 3.0 0.02 0.35 0.01 93 953.6
20260507040056 41 275 0.0 3.0 0.01 0.34 0.00 93 953.2
20260507034551 41 275 2.0 4.0 0.01 0.34 0.34 93 953.4
20260507033051 41 275 1.0 4.0 0.01 0.34 0.34 93 953.9
20260507031553 41 274 1.0 6.0 0.00 0.33 0.33 93 953.8
20260507030048 41 267 3.0 6.0 0.00 0.33 0.33 93 953.9
20260507024548 41 286 0.0 4.0 0.00 0.33 0.33 93 953.9
20260507023044 41 295 1.0 3.0 0.00 0.33 0.33 92 953.8
20260507021555 42 295 0.0 3.0 0.00 0.33 0.33 92 953.7
20260507020046 42 295 0.0 3.0 0.00 0.33 0.33 92 953.8
20260507014543 42 295 0.0 2.0 0.00 0.33 0.33 92 954.4
20260507013042 42 295 0.0 3.0 0.00 0.33 0.33 92 954.1